Stations météo

Publicité
Bergerac, France (7530): Température de l'air & dewpoint: 12.12.2017 17:00:00 - 18.12.2017 17:00:00 (CET)Bergerac, France (7530): Température de l'air 5cm: 12.12.2017 17:00:00 - 18.12.2017 17:00:00 (CET)Bergerac, France (7530): Température de l'air -20cm & Température de l'air -100cm: 12.12.2017 17:00:00 - 18.12.2017 17:00:00 (CET)Bergerac, France (7530): Vitesse du vent & gusts: 12.12.2017 17:00:00 - 18.12.2017 17:00:00 (CET)Bergerac, France (7530): Direction du vent: 12.12.2017 17:00:00 - 18.12.2017 17:00:00 (CET)Bergerac, France (7530): reduced air pressure: 12.12.2017 17:00:00 - 18.12.2017 17:00:00 (CET)Bergerac, France (7530): visibility: 12.12.2017 17:00:00 - 18.12.2017 17:00:00 (CET)Bergerac, France (7530): Ensoleillement: 12.12.2017 17:00:00 - 18.12.2017 17:00:00 (CET)Bergerac, France (7530): Quantités de précipitations: 12.12.2017 17:00:00 - 18.12.2017 17:00:00 (CET)
Date & Time tt [°C] td [°C] tt 5cm [°C] tt -20cm [°C] tt -100cm [°C] ff [km/h] ff [knt] fx [km/h] fx [knt] dd ppp [hPa] vv [km] sd [min] rr [mm]
18.12.2017 17:00:00 10,4 7,3 8,5 7,7 10,5 12 6 37 20 N 1024,6 60 1 0,0
18.12.2017 16:00:00 12,2 9,9 11,3 7,6 10,5 13 7 40 22 NNW 1023,8 10 6 0,0
18.12.2017 15:00:00 11,7 11,2 11,0 7,5 10,5 13 7 28 15 WNW 1023,4 35 0 0,0
18.12.2017 14:00:00 10,8 10,2 10,1 7,5 10,5 15 8 33 18 WNW 1024,3 5 0 1,0
18.12.2017 13:00:00 10,1 9,5 9,6 7,4 10,5 21 11 37 20 W 1025,2 3,1 0 1,4
18.12.2017 12:00:00 9,5 8,7 8,8 7,4 10,5 24 13 39 21 W 1026,3 3,4 0 0,6
18.12.2017 11:00:00 8,9 8,1 8,2 7,3 10,5 18 10 29 16 W 1027,6 6 0 0,4
18.12.2017 10:00:00 8,7 7,1 8,0 7,3 10,5 16 9 28 15 W 1028,3 7 0 0,2
18.12.2017 09:00:00 8,4 7,0 7,5 7,2 10,5 16 9 24 13 WSW 1028,6 10 0 0,0
18.12.2017 08:00:00 8,2 7,0 7,4 7,2 10,5 13 7 23 12 WSW 1029,0 10 0 0,0
18.12.2017 07:00:00 7,9 6,8 5,8 7,2 10,5 16 9 27 14 WSW 1029,4 10 0 0,0
18.12.2017 06:00:00 6,9 6,0 4,9 7,2 10,6 4 2 26 14 WSW 1029,7 43 0 0,0
18.12.2017 05:00:00 6,6 6,2 4,6 7,2 10,6 11 6 19 10 W 1030,5 9 0 0,0
18.12.2017 04:00:00 5,0 4,6 4,4 7,2 10,6 5 3 7 4 S 1031,4 4,6 0 0,0
18.12.2017 03:00:00 4,4 4,0 3,7 7,2 10,6 2 1 5 3 - 1032,1 4,4 0 0,0
18.12.2017 02:00:00 3,6 3,2 1,0 7,2 10,6 0 0 4 2 N 1032,0 4,5 0 0,0
18.12.2017 01:00:00 2,9 2,3 -0,2 7,3 10,6 0 0 6 3 N 1032,0 0,9 0 0,0
18.12.2017 00:00:00 3,8 3,1 0,2 7,2 10,6 2 1 6 3 - 1032,4 0,3 0 0,0
17.12.2017 23:00:00 5,1 4,4 3,0 7,2 10,6 2 1 5 3 SE 1032,1 1,0 0 0,0
17.12.2017 22:00:00 5,8 5,1 5,1 7,2 10,6 3 2 6 3 E 1032,4 3,8 0 0,0
17.12.2017 21:00:00 5,9 5,3 4,7 7,1 10,6 4 2 7 4 SE 1032,4 7 0 0,0
17.12.2017 20:00:00 5,9 4,9 4,8 7,1 10,6 2 1 9 5 ESE 1031,8 8 0 0,0
17.12.2017 19:00:00 6,3 5,4 5,3 7,0 10,6 5 3 9 5 S 1031,7 6 0 0,0
17.12.2017 18:00:00 6,2 5,2 5,5 7,0 10,6 4 2 4 2 E 1031,3 6 0 0,0
17.12.2017 17:00:00 6,8 5,4 6,0 6,9 10,7 0 0 5 3 N 1030,8 10 0 0,0
17.12.2017 16:00:00 7,2 5,7 7,6 6,8 10,6 4 2 10 5 SW 1030,2 10 0 0,0
17.12.2017 15:00:00 6,8 5,4 7,8 6,7 10,6 5 3 9 5 NW 1029,9 10 0 0,0
17.12.2017 14:00:00 5,9 5,0 5,9 6,7 10,7 4 2 7 4 - 1029,9 9 0 0,0
17.12.2017 13:00:00 4,8 4,1 5,4 6,7 10,7 5 3 8 4 NW 1030,3 6 0 0,0
17.12.2017 12:00:00 3,8 3,4 3,2 6,7 10,7 0 0 5 3 N 1030,9 6 0 0,6
17.12.2017 11:00:00 2,2 1,9 1,0 6,7 10,7 0 0 5 3 N 1031,2 4,1 0 0,6
17.12.2017 10:00:00 0,8 0,4 0,1 6,8 10,7 5 3 10 5 ENE 1030,6 2,8 6 0,4
17.12.2017 09:00:00 0,0 -0,4 -0,5 6,8 10,7 3 2 6 3 ENE 1030,1 3,2 0 0,0
17.12.2017 08:00:00 -0,1 -0,5 -0,9 6,9 10,7 5 3 9 5 - 1030,2 6 0 0,0
17.12.2017 07:00:00 -0,7 -1,1 -1,6 7,0 10,7 0 0 6 3 N 1029,9 6 0 0,0
17.12.2017 06:00:00 -1,1 -1,5 -2,6 7,1 10,7 0 0 5 3 N 1029,7 5 0 0,0
17.12.2017 05:00:00 -1,9 -2,5 -4,6 7,1 10,7 0 0 3 2 N 1029,5 0,5 0 0,0
17.12.2017 04:00:00 -1,8 -2,4 -5,5 7,2 10,7 0 0 4 2 N 1029,3 4,3 0 0,0
17.12.2017 03:00:00 -1,9 -2,5 -5,7 7,3 10,7 0 0 3 2 N 1029,1 0,2 0 0,0
17.12.2017 02:00:00 -1,1 -1,7 -4,6 7,4 10,7 2 1 7 4 SW 1028,9 3,4 0 0,0
17.12.2017 01:00:00 -0,7 -1,4 -4,7 7,5 10,7 0 0 6 3 N 1028,7 0,2 0 0,0
17.12.2017 00:00:00 -0,2 -0,9 -3,3 7,5 10,7 6 4 8 4 WNW 1028,5 3,6 0 0,0
16.12.2017 23:00:00 -0,1 -0,7 -4,1 7,6 10,7 5 3 6 3 WNW 1028,2 6 0 0,0
16.12.2017 22:00:00 0,3 -0,3 -4,2 7,6 10,7 5 3 10 5 WSW 1027,8 6 0 0,0
16.12.2017 21:00:00 0,6 -0,9 -3,4 7,7 10,7 5 3 9 5 SW 1026,9 11 0 0,0
16.12.2017 20:00:00 0,7 -0,8 -2,9 7,7 10,7 7 4 11 6 WNW 1026,6 8 0 0,0
16.12.2017 19:00:00 2,1 0,6 -1,7 7,7 10,7 9 5 13 7 W 1025,6 15 0 0,0
16.12.2017 18:00:00 3,6 1,6 -0,6 7,7 10,7 8 4 11 6 W 1024,5 22 0 0,0
16.12.2017 17:00:00 6,0 2,5 3,6 7,6 10,7 6 4 18 10 N 1023,9 42 51 0,0
16.12.2017 16:00:00 7,2 2,9 7,4 7,6 10,8 10 6 16 9 NNW 1023,0 27 46 0,0
16.12.2017 15:00:00 6,4 3,5 6,7 7,5 10,7 8 5 14 7 NNW 1022,4 37 9 0,0
16.12.2017 14:00:00 5,5 3,3 6,2 7,5 10,7 6 4 12 6 WNW 1022,4 20 0 0,0
16.12.2017 13:00:00 4,7 2,9 4,9 7,6 10,7 5 3 11 6 - 1021,9 10 0 0,0
16.12.2017 12:00:00 3,6 2,4 3,9 7,6 10,7 8 4 14 7 WNW 1021,7 10 11 0,0
16.12.2017 11:00:00 2,1 1,7 0,6 7,7 10,7 7 4 10 5 W 1021,3 14 0 0,0
16.12.2017 10:00:00 0,3 -0,1 -2,8 7,8 10,7 0 0 4 2 N 1020,3 8 11 0,0
16.12.2017 09:00:00 -1,4 -1,8 -5,6 7,9 10,7 3 1 8 5 NW 1019,6 4,0 5 0,0
16.12.2017 08:00:00 -2,3 -3,0 -5,6 8,1 10,8 8 5 14 8 WNW 1018,5 11 0 0,0
16.12.2017 07:00:00 -2,1 -2,7 -4,9 8,2 10,8 9 5 10 5 WNW 1017,5 4,4 0 0,0
16.12.2017 06:00:00 -1,0 -1,4 -4,7 8,3 10,8 5 3 9 5 WNW 1017,0 0,9 0 0,0
16.12.2017 05:00:00 -1,0 -1,7 -4,6 8,4 10,7 4 2 6 3 NW 1016,3 0,6 0 0,0
16.12.2017 04:00:00 0,5 -0,1 -3,6 8,4 10,7 7 4 10 5 W 1015,6 0,3 0 0,0
16.12.2017 03:00:00 1,3 0,4 -3,1 8,5 10,7 3 2 8 4 WNW 1014,7 1,2 0 0,0
16.12.2017 02:00:00 1,7 0,2 -1,4 8,6 10,7 8 4 12 6 W 1013,9 10 0 0,0
16.12.2017 01:00:00 2,8 1,8 -0,1 8,7 10,7 11 6 14 8 W 1013,4 10 0 0,0
16.12.2017 00:00:00 3,8 2,9 1,5 8,7 10,7 9 5 14 7 W 1012,8 18 0 0,0
15.12.2017 23:00:00 2,9 2,3 0,3 8,8 10,7 11 6 18 10 W 1011,9 10 0 0,0
15.12.2017 22:00:00 2,5 1,6 -0,2 8,9 10,7 11 6 15 8 W 1010,9 13 0 0,0
15.12.2017 21:00:00 3,6 2,3 1,9 8,9 10,7 13 7 20 11 W 1009,9 19 0 0,0
15.12.2017 20:00:00 5,2 3,2 4,1 8,9 10,7 16 9 26 14 W 1009,0 10 0 0,0
15.12.2017 19:00:00 6,1 3,9 4,0 8,9 10,7 16 9 29 16 W 1007,7 20 0 0,0
15.12.2017 18:00:00 6,0 4,0 3,8 9,0 10,7 10 5 19 11 WSW 1007,1 20 0 0,0
15.12.2017 17:00:00 7,4 4,7 6,2 8,9 10,7 14 7 36 20 W 1006,4 20 13 0,0
15.12.2017 16:00:00 8,2 5,0 8,0 8,9 10,7 24 13 48 26 WNW 1005,6 20 11 0,0
15.12.2017 15:00:00 8,7 5,8 6,9 8,9 10,7 28 15 46 25 WSW 1004,8 20 3 1,2
15.12.2017 14:00:00 8,1 5,6 7,3 8,9 10,7 16 9 31 17 SW 1005,5 10 7 0,4
15.12.2017 13:00:00 9,0 6,6 6,3 8,9 10,7 13 7 39 21 SSW 1006,4 20 15 1,8
15.12.2017 12:00:00 8,4 5,9 7,1 8,9 10,7 9 5 19 10 WSW 1007,7 19 4 0,4
15.12.2017 11:00:00 7,9 4,8 7,3 8,9 10,7 12 6 24 13 W 1008,2 20 48 0,0
15.12.2017 10:00:00 6,6 4,8 4,9 9,0 10,7 14 7 21 11 SSW 1007,8 20 3 0,0
15.12.2017 09:00:00 5,8 4,3 4,8 9,1 10,7 6 4 16 9 S 1007,7 16 0 0,2
15.12.2017 08:00:00 5,9 4,4 2,9 9,1 10,7 13 7 21 11 W 1007,5 10 0 0,6
15.12.2017 07:00:00 5,5 3,5 3,3 9,1 10,7 9 5 29 16 WSW 1007,0 43 0 0,0
15.12.2017 06:00:00 6,5 3,8 5,0 9,1 10,7 11 6 20 11 WSW 1006,3 57 0 0,0
15.12.2017 05:00:00 6,9 3,7 5,9 9,2 10,7 12 7 28 15 SW 1005,5 38 0 0,0
15.12.2017 04:00:00 7,6 4,9 6,0 9,2 10,7 18 10 32 18 W 1006,2 10 0 0,0
15.12.2017 03:00:00 7,3 5,1 6,3 9,2 10,7 9 5 28 15 WSW 1006,2 10 0 0,4
15.12.2017 02:00:00 7,6 6,2 7,0 9,2 10,7 11 6 27 15 WNW 1007,0 9 0 1,0
15.12.2017 01:00:00 8,5 6,3 7,5 9,2 10,7 21 11 44 24 NW 1006,7 8 0 0,6
15.12.2017 00:00:00 9,6 7,5 8,6 9,2 10,7 22 12 45 25 W 1006,6 10 0 1,6
14.12.2017 23:00:00 10,0 6,9 8,2 9,2 10,7 24 13 49 26 WSW 1006,2 10 0 0,2
14.12.2017 22:00:00 10,2 7,6 8,7 9,2 10,6 29 16 54 29 WSW 1006,4 17 0 1,0
14.12.2017 21:00:00 10,6 7,7 9,2 9,2 10,7 29 16 48 26 WSW 1006,8 33 0 0,0
14.12.2017 20:00:00 10,1 8,0 8,8 9,2 10,7 19 10 51 27 WSW 1007,1 20 0 3,5
14.12.2017 19:00:00 10,9 7,4 8,1 9,1 10,7 16 9 31 17 WSW 1007,2 14 0 0,2
14.12.2017 18:00:00 10,7 6,4 8,5 9,1 10,7 14 8 38 21 WSW 1007,7 20 0 0,2
14.12.2017 17:00:00 12,9 5,6 11,7 9,0 10,7 20 11 59 32 WSW 1008,2 40 50 0,0
14.12.2017 16:00:00 13,8 5,2 13,4 8,9 10,6 31 17 66 35 WSW 1008,6 10 60 0,0
14.12.2017 15:00:00 14,3 5,9 12,9 8,9 10,7 31 17 61 33 WSW 1009,2 60 34 0,0
14.12.2017 14:00:00 13,4 7,6 13,2 8,8 10,7 24 13 50 27 WSW 1010,0 10 30 0,0
14.12.2017 13:00:00 13,6 8,4 13,5 8,7 10,7 26 14 56 31 WSW 1011,0 19 17 0,0
14.12.2017 12:00:00 13,1 8,6 14,3 8,6 10,7 21 12 37 20 SW 1012,5 14 55 0,0
14.12.2017 11:00:00 13,1 9,2 11,7 8,6 10,7 22 12 36 20 SW 1013,0 10 35 0,0
14.12.2017 10:00:00 11,3 8,7 10,0 8,6 10,7 19 10 34 19 SSW 1013,4 13 34 0,0
14.12.2017 09:00:00 10,6 8,5 9,9 8,5 10,7 15 8 28 15 SSW 1013,9 10 0 0,0
14.12.2017 08:00:00 10,8 8,7 9,6 8,5 10,7 13 7 28 15 SW 1014,0 10 0 0,0
14.12.2017 07:00:00 10,7 8,8 9,6 8,5 10,7 14 8 29 15 SW 1013,9 13 0 0,0
14.12.2017 06:00:00 10,8 8,7 10,0 8,4 10,7 15 8 27 15 SW 1013,8 10 0 0,0
14.12.2017 05:00:00 10,9 8,6 10,1 8,4 10,7 13 7 25 14 SW 1013,9 10 0 0,0
14.12.2017 04:00:00 10,9 8,6 9,6 8,3 10,7 14 7 22 12 SW 1014,0 19 0 0,0
14.12.2017 03:00:00 10,9 8,3 9,9 8,3 10,7 15 8 28 15 WSW 1014,3 10 0 0,0
14.12.2017 02:00:00 11,6 9,0 10,4 8,2 10,7 18 10 31 17 WSW 1014,0 34 0 0,0
14.12.2017 01:00:00 11,5 9,4 10,4 8,1 10,7 16 9 44 24 W 1014,1 10 0 0,0
14.12.2017 00:00:00 11,8 9,9 10,4 8,0 10,7 16 9 28 15 SW 1013,8 10 0 0,0
13.12.2017 23:00:00 11,5 9,7 10,4 8,0 10,7 11 6 28 15 SW 1013,4 33 0 0,0
13.12.2017 22:00:00 11,7 10,3 10,3 7,9 10,7 21 11 42 23 WSW 1013,0 46 0 0,4
13.12.2017 21:00:00 10,9 9,7 9,5 7,8 10,7 23 12 48 26 SW 1012,5 18 0 0,4
13.12.2017 20:00:00 10,2 8,6 9,2 7,8 10,7 28 15 53 29 SW 1012,6 10 0 0,0
13.12.2017 19:00:00 10,1 8,2 9,1 7,7 10,7 26 14 51 28 SW 1012,6 33 0 0,0
13.12.2017 18:00:00 9,9 8,2 8,7 7,7 10,7 21 11 39 21 SSW 1013,2 5 0 0,2
13.12.2017 17:00:00 9,7 7,5 8,7 7,6 10,7 15 8 31 17 S 1013,6 10 0 0,0
13.12.2017 16:00:00 9,5 7,6 8,9 7,6 10,7 15 8 30 16 S 1014,2 10 0 0,2
13.12.2017 15:00:00 9,4 7,7 8,1 7,6 10,7 16 9 27 15 S 1015,0 10 3 0,0
13.12.2017 14:00:00 7,4 6,2 6,1 7,5 10,7 4 2 13 7 E 1016,2 26 0 0,0
13.12.2017 13:00:00 6,3 4,5 5,4 7,5 10,7 9 5 18 10 E 1017,4 39 0 0,0
13.12.2017 12:00:00 5,2 3,5 4,0 7,5 10,8 8 4 16 9 SE 1018,6 25 0 0,2
13.12.2017 11:00:00 4,2 2,7 3,7 7,6 10,7 10 6 18 10 E 1019,2 2,4 0 1,4
13.12.2017 10:00:00 4,0 1,9 3,2 7,6 10,7 11 6 24 13 E 1019,2 22 0 0,0
13.12.2017 09:00:00 3,5 1,4 2,9 7,7 10,8 9 5 16 9 E 1019,7 20 0 0,0
13.12.2017 08:00:00 3,5 1,2 2,6 7,7 10,7 4 2 16 9 ESE 1019,9 23 0 0,0
13.12.2017 07:00:00 3,2 1,4 2,0 7,7 10,7 10 5 18 10 E 1019,7 22 0 0,0
13.12.2017 06:00:00 2,8 1,5 -0,1 7,8 10,8 9 5 22 12 ESE 1020,1 23 0 0,0
13.12.2017 05:00:00 0,7 0,3 -1,4 7,9 10,8 9 5 14 7 E 1020,7 8 0 0,0
13.12.2017 04:00:00 0,9 0,3 -0,5 7,9 10,7 11 6 15 8 E 1021,2 8 0 0,0
13.12.2017 03:00:00 1,6 0,6 -0,6 8,0 10,7 7 4 19 10 E 1021,3 8 0 0,0
13.12.2017 02:00:00 3,5 2,6 0,4 8,1 10,8 6 3 13 7 ESE 1021,0 20 0 0,0
13.12.2017 01:00:00 2,9 1,9 -0,2 8,1 10,7 6 4 16 9 E 1021,5 13 0 0,0
13.12.2017 00:00:00 2,5 1,5 -0,2 8,2 10,7 5 3 13 7 E 1021,7 11 0 0,0
12.12.2017 23:00:00 2,8 1,3 0,4 8,2 10,7 6 4 17 9 ENE 1021,3 8 0 0,0
12.12.2017 22:00:00 4,6 3,1 2,5 8,3 10,7 6 4 19 10 SE 1021,2 17 0 0,6
12.12.2017 21:00:00 5,5 3,7 2,3 8,4 10,7 6 3 16 9 S 1021,0 6 0 0,6
12.12.2017 20:00:00 3,9 2,6 -1,5 8,4 10,8 5 3 11 6 E 1020,1 10 0 0,0
12.12.2017 19:00:00 1,9 0,4 -1,3 8,4 10,7 4 2 9 5 ESE 1020,0 15 0 0,0
12.12.2017 18:00:00 4,0 1,4 -1,1 8,4 10,7 4 2 6 4 SE 1019,6 10 0 0,0
12.12.2017 17:00:00 7,6 1,9 2,8 8,4 10,7 4 2 9 5 S 1018,7 52 50 0,0

tt = Température de l'air
td = dewpoint
tt 5cm = Température de l'air 5cm
tt -20cm = Température de l'air -20cm
tt -100cm = Température de l'air -100cm
ff = Vitesse du vent
fx = gusts
dd = Direction du vent
ppp = reduced air pressure
vv = visibility
sd = Ensoleillement
rr = Quantités de précipitations

stations d'obs. à proximité